Year,Month,Day,Hour,Minute,Value (Times are PST for temperature in C)
2012,08,17,00,00,17.90
2012,08,17,00,01,17.90
2012,08,17,00,02,17.90
2012,08,17,00,03,17.90
2012,08,17,00,04,17.90
2012,08,17,00,05,17.90
2012,08,17,00,06,17.90
2012,08,17,00,07,17.80
2012,08,17,00,08,17.80
2012,08,17,00,09,17.80
2012,08,17,00,10,17.80
2012,08,17,00,11,17.70
2012,08,17,00,12,17.70
2012,08,17,00,13,17.70
2012,08,17,00,14,17.70
2012,08,17,00,15,17.70
2012,08,17,00,16,17.60
2012,08,17,00,17,17.60
2012,08,17,00,18,17.60
2012,08,17,00,19,17.60
2012,08,17,00,20,17.60
2012,08,17,00,21,17.60
2012,08,17,00,22,17.60
2012,08,17,00,23,17.60
2012,08,17,00,24,17.60
2012,08,17,00,25,17.50
2012,08,17,00,26,17.50
2012,08,17,00,27,17.50
2012,08,17,00,28,17.40
2012,08,17,00,29,17.40
2012,08,17,00,30,17.30
2012,08,17,00,31,17.30
2012,08,17,00,32,17.30
2012,08,17,00,33,17.30
2012,08,17,00,34,17.30
2012,08,17,00,35,17.20
2012,08,17,00,36,17.20
2012,08,17,00,37,17.20
2012,08,17,00,38,17.20
2012,08,17,00,39,17.20
2012,08,17,00,40,17.10
2012,08,17,00,41,17.10
2012,08,17,00,42,17.10
2012,08,17,00,43,17.10
2012,08,17,00,44,17.10
2012,08,17,00,45,17.00
2012,08,17,00,46,17.00
2012,08,17,00,47,17.00
2012,08,17,00,48,17.00
2012,08,17,00,49,16.90
2012,08,17,00,50,16.90
2012,08,17,00,51,16.90
2012,08,17,00,52,16.90
2012,08,17,00,53,16.80
2012,08,17,00,54,16.80
2012,08,17,00,55,16.80
2012,08,17,00,56,16.80
2012,08,17,00,57,16.70
2012,08,17,00,58,16.70
2012,08,17,00,59,16.70
2012,08,17,01,00,16.70
2012,08,17,01,01,16.70
2012,08,17,01,02,16.70
2012,08,17,01,03,16.70
2012,08,17,01,04,16.70
2012,08,17,01,05,16.70
2012,08,17,01,06,16.70
2012,08,17,01,07,16.70
2012,08,17,01,08,16.70
2012,08,17,01,09,16.70
2012,08,17,01,10,16.70
2012,08,17,01,11,16.70
2012,08,17,01,12,16.70
2012,08,17,01,13,16.70
2012,08,17,01,14,16.70
2012,08,17,01,15,16.60
2012,08,17,01,16,16.60
2012,08,17,01,17,16.60
2012,08,17,01,18,16.60
2012,08,17,01,19,16.60
2012,08,17,01,20,16.60
2012,08,17,01,21,16.60
2012,08,17,01,22,16.60
2012,08,17,01,23,16.60
2012,08,17,01,24,16.60
2012,08,17,01,25,16.60
2012,08,17,01,26,16.60
2012,08,17,01,27,16.60
2012,08,17,01,28,16.60
2012,08,17,01,29,16.60
2012,08,17,01,30,16.60
2012,08,17,01,31,16.60
2012,08,17,01,32,16.60
2012,08,17,01,33,16.60
2012,08,17,01,34,16.60
2012,08,17,01,35,16.60
2012,08,17,01,36,16.70
2012,08,17,01,37,16.70
2012,08,17,01,38,16.70
2012,08,17,01,39,16.70
2012,08,17,01,40,16.70
2012,08,17,01,41,16.70
2012,08,17,01,42,16.70
2012,08,17,01,43,16.70
2012,08,17,01,44,16.70
2012,08,17,01,45,16.70
2012,08,17,01,46,16.70
2012,08,17,01,47,16.70
2012,08,17,01,48,16.70
2012,08,17,01,49,16.70
2012,08,17,01,50,16.70
2012,08,17,01,51,16.70
2012,08,17,01,52,16.70
2012,08,17,01,53,16.70
2012,08,17,01,54,16.70
2012,08,17,01,55,16.70
2012,08,17,01,56,16.70
2012,08,17,01,57,16.70
2012,08,17,01,58,16.60
2012,08,17,01,59,16.60
2012,08,17,02,00,16.60
2012,08,17,02,01,16.60
2012,08,17,02,02,16.60
2012,08,17,02,03,16.70
2012,08,17,02,04,16.70
2012,08,17,02,05,16.70
2012,08,17,02,06,16.80
2012,08,17,02,07,16.80
2012,08,17,02,08,16.70
2012,08,17,02,09,16.70
2012,08,17,02,10,16.70
2012,08,17,02,11,16.70
2012,08,17,02,12,16.60
2012,08,17,02,13,16.60
2012,08,17,02,14,16.60
2012,08,17,02,15,16.50
2012,08,17,02,16,16.40
2012,08,17,02,17,16.40
2012,08,17,02,18,16.40
2012,08,17,02,19,16.30
2012,08,17,02,20,16.30
2012,08,17,02,21,16.30
2012,08,17,02,22,16.20
2012,08,17,02,23,16.20
2012,08,17,02,24,16.20
2012,08,17,02,25,16.20
2012,08,17,02,26,16.20
2012,08,17,02,27,16.20
2012,08,17,02,28,16.20
2012,08,17,02,29,16.10
2012,08,17,02,30,16.10
2012,08,17,02,31,16.00
2012,08,17,02,32,15.90
2012,08,17,02,33,15.90
2012,08,17,02,34,15.80
2012,08,17,02,35,15.80
2012,08,17,02,36,15.80
2012,08,17,02,37,15.80
2012,08,17,02,38,15.80
2012,08,17,02,39,15.80
2012,08,17,02,40,15.90
2012,08,17,02,41,15.90
2012,08,17,02,42,15.90
2012,08,17,02,43,16.00
2012,08,17,02,44,16.10
2012,08,17,02,45,16.10
2012,08,17,02,46,16.10
2012,08,17,02,47,16.10
2012,08,17,02,48,16.10
2012,08,17,02,49,16.10
2012,08,17,02,50,16.10
2012,08,17,02,51,16.10
2012,08,17,02,52,16.10
2012,08,17,02,53,16.20
2012,08,17,02,54,16.20
2012,08,17,02,55,16.20
2012,08,17,02,56,16.20
2012,08,17,02,57,16.30
2012,08,17,02,58,16.30
2012,08,17,02,59,16.30
2012,08,17,03,00,16.30
2012,08,17,03,01,16.30
2012,08,17,03,02,16.20
2012,08,17,03,03,16.20
2012,08,17,03,04,16.20
2012,08,17,03,05,16.20
2012,08,17,03,06,16.10
2012,08,17,03,07,16.10
2012,08,17,03,08,16.10
2012,08,17,03,09,16.20
2012,08,17,03,10,16.20
2012,08,17,03,11,16.20
2012,08,17,03,12,16.20
2012,08,17,03,13,16.30
2012,08,17,03,14,16.30
2012,08,17,03,15,16.30
2012,08,17,03,16,16.30
2012,08,17,03,17,16.30
2012,08,17,03,18,16.30
2012,08,17,03,19,16.30
2012,08,17,03,20,16.30
2012,08,17,03,21,16.30
2012,08,17,03,22,16.30
2012,08,17,03,23,16.30
2012,08,17,03,24,16.30
2012,08,17,03,25,16.30
2012,08,17,03,26,16.30
2012,08,17,03,27,16.30
2012,08,17,03,28,16.20
2012,08,17,03,29,16.20
2012,08,17,03,30,16.20
2012,08,17,03,31,16.20
2012,08,17,03,32,16.20
2012,08,17,03,33,16.20
2012,08,17,03,34,16.20
2012,08,17,03,35,16.20
2012,08,17,03,36,16.10
2012,08,17,03,37,16.10
2012,08,17,03,38,16.10
2012,08,17,03,39,16.10
2012,08,17,03,40,16.10
2012,08,17,03,41,16.10
2012,08,17,03,42,16.10
2012,08,17,03,43,16.10
2012,08,17,03,44,16.10
2012,08,17,03,45,16.10
2012,08,17,03,46,16.10
2012,08,17,03,47,16.10
2012,08,17,03,48,16.10
2012,08,17,03,49,16.10
2012,08,17,03,50,16.00
2012,08,17,03,51,15.90
2012,08,17,03,52,15.90
2012,08,17,03,53,15.90
2012,08,17,03,54,15.90
2012,08,17,03,55,15.90
2012,08,17,03,56,15.90
2012,08,17,03,57,15.90
2012,08,17,03,58,15.90
2012,08,17,03,59,15.90
2012,08,17,04,00,15.90
2012,08,17,04,01,15.80
2012,08,17,04,02,15.80
2012,08,17,04,03,15.80
2012,08,17,04,04,15.80
2012,08,17,04,05,15.80
2012,08,17,04,06,15.80
2012,08,17,04,07,15.80
2012,08,17,04,08,15.80
2012,08,17,04,09,15.80
2012,08,17,04,10,15.80
2012,08,17,04,11,15.80
2012,08,17,04,12,15.80
2012,08,17,04,13,15.80
2012,08,17,04,14,15.80
2012,08,17,04,15,15.80
2012,08,17,04,16,15.80
2012,08,17,04,17,15.80
2012,08,17,04,18,15.80
2012,08,17,04,19,15.80
2012,08,17,04,20,15.70
2012,08,17,04,21,15.70
2012,08,17,04,22,15.60
2012,08,17,04,23,15.60
2012,08,17,04,24,15.60
2012,08,17,04,25,15.60
2012,08,17,04,26,15.60
2012,08,17,04,27,15.70
2012,08,17,04,28,15.70
2012,08,17,04,29,15.70
2012,08,17,04,30,15.70
2012,08,17,04,31,15.70
2012,08,17,04,32,15.60
2012,08,17,04,33,15.60
2012,08,17,04,34,15.60
2012,08,17,04,35,15.60
2012,08,17,04,36,15.50
2012,08,17,04,37,15.50
2012,08,17,04,38,15.50
2012,08,17,04,39,15.50
2012,08,17,04,40,15.50
2012,08,17,04,41,15.40
2012,08,17,04,42,15.40
2012,08,17,04,43,15.40
2012,08,17,04,44,15.40
2012,08,17,04,45,15.40
2012,08,17,04,46,15.40
2012,08,17,04,47,15.40
2012,08,17,04,48,15.40
2012,08,17,04,49,15.40
2012,08,17,04,50,15.30
2012,08,17,04,51,15.30
2012,08,17,04,52,15.30
2012,08,17,04,53,15.30
2012,08,17,04,54,15.30
2012,08,17,04,55,15.30
2012,08,17,04,56,15.30
2012,08,17,04,57,15.30
2012,08,17,04,58,15.20
2012,08,17,04,59,15.20
2012,08,17,05,00,15.20
2012,08,17,05,01,15.20
2012,08,17,05,02,15.20
2012,08,17,05,03,15.20
2012,08,17,05,04,15.20
2012,08,17,05,05,15.20
2012,08,17,05,06,15.20
2012,08,17,05,07,15.20
2012,08,17,05,08,15.20
2012,08,17,05,09,15.10
2012,08,17,05,10,15.10
2012,08,17,05,11,15.10
2012,08,17,05,12,15.00
2012,08,17,05,13,15.00
2012,08,17,05,14,15.00
2012,08,17,05,15,15.00
2012,08,17,05,16,14.90
2012,08,17,05,17,14.90
2012,08,17,05,18,14.90
2012,08,17,05,19,14.90
2012,08,17,05,20,14.90
2012,08,17,05,21,14.90
2012,08,17,05,22,14.90
2012,08,17,05,23,14.90
2012,08,17,05,24,14.90
2012,08,17,05,25,14.90
2012,08,17,05,26,14.90
2012,08,17,05,27,14.90
2012,08,17,05,28,14.90
2012,08,17,05,29,14.90
2012,08,17,05,30,14.90
2012,08,17,05,31,14.90
2012,08,17,05,32,14.90
2012,08,17,05,33,14.90
2012,08,17,05,34,14.80
2012,08,17,05,35,14.80
2012,08,17,05,36,14.80
2012,08,17,05,37,14.80
2012,08,17,05,38,14.80
2012,08,17,05,39,14.80
2012,08,17,05,40,14.80
2012,08,17,05,41,14.80
2012,08,17,05,42,14.80
2012,08,17,05,43,14.80
2012,08,17,05,44,14.80
2012,08,17,05,45,14.80
2012,08,17,05,46,14.80
2012,08,17,05,47,14.80
2012,08,17,05,48,14.80
2012,08,17,05,49,14.80
2012,08,17,05,50,14.80
2012,08,17,05,51,14.80
2012,08,17,05,52,14.80
2012,08,17,05,53,14.80
2012,08,17,05,54,14.90
2012,08,17,05,55,14.90
2012,08,17,05,56,14.90
2012,08,17,05,57,14.90
2012,08,17,05,58,14.90
2012,08,17,05,59,15.00
2012,08,17,06,00,15.00
2012,08,17,06,01,15.00
2012,08,17,06,02,15.00
2012,08,17,06,03,15.00
2012,08,17,06,04,14.90
2012,08,17,06,05,14.90
2012,08,17,06,06,14.90
2012,08,17,06,07,15.00
2012,08,17,06,08,15.00
2012,08,17,06,09,15.10
2012,08,17,06,10,15.20
2012,08,17,06,11,15.20
2012,08,17,06,12,15.20
2012,08,17,06,13,15.10
2012,08,17,06,14,15.10
2012,08,17,06,15,15.10
2012,08,17,06,16,15.20
2012,08,17,06,17,15.20
2012,08,17,06,18,15.20
2012,08,17,06,19,15.20
2012,08,17,06,20,15.20
2012,08,17,06,21,15.20
2012,08,17,06,22,15.10
2012,08,17,06,23,15.10
2012,08,17,06,24,15.10
2012,08,17,06,25,15.10
2012,08,17,06,26,15.20
2012,08,17,06,27,15.20
2012,08,17,06,28,15.20
2012,08,17,06,29,15.20
2012,08,17,06,30,15.20
2012,08,17,06,31,15.30
2012,08,17,06,32,15.30
2012,08,17,06,33,15.20
2012,08,17,06,34,15.20
2012,08,17,06,35,15.20
2012,08,17,06,36,15.20
2012,08,17,06,37,15.20
2012,08,17,06,38,15.20
2012,08,17,06,39,15.20
2012,08,17,06,40,15.20
2012,08,17,06,41,15.20
2012,08,17,06,42,15.20
2012,08,17,06,43,15.20
2012,08,17,06,44,15.20
2012,08,17,06,45,15.20
2012,08,17,06,46,15.30
2012,08,17,06,47,15.30
2012,08,17,06,48,15.30
2012,08,17,06,49,15.30
2012,08,17,06,50,15.30
2012,08,17,06,51,15.30
2012,08,17,06,52,15.30
2012,08,17,06,53,15.30
2012,08,17,06,54,15.30
2012,08,17,06,55,15.40
2012,08,17,06,56,15.50
2012,08,17,06,57,15.50
2012,08,17,06,58,15.60
2012,08,17,06,59,15.60
2012,08,17,07,00,15.60
2012,08,17,07,01,15.60
2012,08,17,07,02,15.70
2012,08,17,07,03,15.80
2012,08,17,07,04,15.80
2012,08,17,07,05,15.80
2012,08,17,07,06,15.90
2012,08,17,07,07,15.90
2012,08,17,07,08,15.90
2012,08,17,07,09,16.00
2012,08,17,07,10,16.10
2012,08,17,07,11,16.10
2012,08,17,07,12,16.10
2012,08,17,07,13,16.20
2012,08,17,07,14,16.30
2012,08,17,07,15,16.30
2012,08,17,07,16,16.40
2012,08,17,07,17,16.40
2012,08,17,07,18,16.50
2012,08,17,07,19,16.60
2012,08,17,07,20,16.60
2012,08,17,07,21,16.70
2012,08,17,07,22,16.70
2012,08,17,07,23,16.80
2012,08,17,07,24,16.80
2012,08,17,07,25,16.90
2012,08,17,07,26,16.90
2012,08,17,07,27,17.00
2012,08,17,07,28,17.00
2012,08,17,07,29,17.10
2012,08,17,07,30,17.20
2012,08,17,07,31,17.30
2012,08,17,07,32,17.40
2012,08,17,07,33,17.50
2012,08,17,07,34,17.60
2012,08,17,07,35,17.70
2012,08,17,07,36,17.80
2012,08,17,07,37,17.90
2012,08,17,07,38,18.00
2012,08,17,07,39,18.10
2012,08,17,07,40,18.20
2012,08,17,07,41,18.30
2012,08,17,07,42,18.40
2012,08,17,07,43,18.40
2012,08,17,07,44,18.50
2012,08,17,07,45,18.50
2012,08,17,07,46,18.50
2012,08,17,07,47,18.50
2012,08,17,07,48,18.60
2012,08,17,07,49,18.60
2012,08,17,07,50,18.60
2012,08,17,07,51,18.70
2012,08,17,07,52,18.70
2012,08,17,07,53,18.80
2012,08,17,07,54,18.80
2012,08,17,07,55,18.80
2012,08,17,07,56,18.90
2012,08,17,07,57,18.90
2012,08,17,07,58,18.90
2012,08,17,07,59,19.00
2012,08,17,08,00,19.10
2012,08,17,08,01,19.10
2012,08,17,08,02,19.10
2012,08,17,08,03,19.20
2012,08,17,08,04,19.30
2012,08,17,08,05,19.30
2012,08,17,08,06,19.40
2012,08,17,08,07,19.50
2012,08,17,08,08,19.50
2012,08,17,08,09,19.60
2012,08,17,08,10,19.60
2012,08,17,08,11,19.70
2012,08,17,08,12,19.70
2012,08,17,08,13,19.80
2012,08,17,08,14,19.80
2012,08,17,08,15,19.90
2012,08,17,08,16,19.90
2012,08,17,08,17,19.90
2012,08,17,08,18,20.00
2012,08,17,08,19,20.10
2012,08,17,08,20,20.10
2012,08,17,08,21,20.20
2012,08,17,08,22,20.20
2012,08,17,08,23,20.30
2012,08,17,08,24,20.30
2012,08,17,08,25,20.40
2012,08,17,08,26,20.50
2012,08,17,08,27,20.50
2012,08,17,08,28,20.60
2012,08,17,08,29,20.60
2012,08,17,08,30,20.70
2012,08,17,08,31,20.70
2012,08,17,08,32,20.70
2012,08,17,08,33,20.80
2012,08,17,08,34,20.80
2012,08,17,08,35,20.90
2012,08,17,08,36,20.90
2012,08,17,08,37,20.90
2012,08,17,08,38,21.00
2012,08,17,08,39,21.00
2012,08,17,08,40,21.10
2012,08,17,08,41,21.10
2012,08,17,08,42,21.20
2012,08,17,08,43,21.20
2012,08,17,08,44,21.20
2012,08,17,08,45,21.30
2012,08,17,08,46,21.30
2012,08,17,08,47,21.30
2012,08,17,08,48,21.30
2012,08,17,08,49,21.40
2012,08,17,08,50,21.40
2012,08,17,08,51,21.40
2012,08,17,08,52,21.50
2012,08,17,08,53,21.60
2012,08,17,08,54,21.60
2012,08,17,08,55,21.60
2012,08,17,08,56,21.60
2012,08,17,08,57,21.60
2012,08,17,08,58,21.70
2012,08,17,08,59,21.70
2012,08,17,09,00,21.80
2012,08,17,09,01,21.80
2012,08,17,09,02,21.90
2012,08,17,09,03,21.90
2012,08,17,09,04,22.00
2012,08,17,09,05,22.00
2012,08,17,09,06,22.10
2012,08,17,09,07,22.20
2012,08,17,09,08,22.20
2012,08,17,09,09,22.30
2012,08,17,09,10,22.40
2012,08,17,09,11,22.40
2012,08,17,09,12,22.50
2012,08,17,09,13,22.60
2012,08,17,09,14,22.60
2012,08,17,09,15,22.70
2012,08,17,09,16,22.80
2012,08,17,09,17,22.90
2012,08,17,09,18,22.90
2012,08,17,09,19,22.90
2012,08,17,09,20,23.00
2012,08,17,09,21,23.10
2012,08,17,09,22,23.30
2012,08,17,09,23,23.40
2012,08,17,09,24,23.50
2012,08,17,09,25,23.70
2012,08,17,09,26,23.80
2012,08,17,09,27,24.00
2012,08,17,09,28,24.10
2012,08,17,09,29,24.20
2012,08,17,09,30,24.40
2012,08,17,09,31,24.50
2012,08,17,09,32,24.70
2012,08,17,09,33,24.80
2012,08,17,09,34,24.90
2012,08,17,09,35,24.90
2012,08,17,09,36,25.00
2012,08,17,09,37,25.00
2012,08,17,09,38,24.90
2012,08,17,09,39,24.80
2012,08,17,09,40,24.60
2012,08,17,09,41,24.50
2012,08,17,09,42,24.50
2012,08,17,09,43,24.40
2012,08,17,09,44,24.30
2012,08,17,09,45,24.30
2012,08,17,09,46,24.20
2012,08,17,09,47,24.20
2012,08,17,09,48,24.20
2012,08,17,09,49,24.30
2012,08,17,09,50,24.30
2012,08,17,09,51,24.40
2012,08,17,09,52,24.40
2012,08,17,09,53,24.40
2012,08,17,09,54,24.30
2012,08,17,09,55,24.30
2012,08,17,09,56,24.20
2012,08,17,09,57,24.20
2012,08,17,09,58,24.10
2012,08,17,09,59,24.10
2012,08,17,10,00,24.20
2012,08,17,10,01,24.30
2012,08,17,10,02,24.40
2012,08,17,10,03,24.50
2012,08,17,10,04,24.50
2012,08,17,10,05,24.60
2012,08,17,10,06,24.70
2012,08,17,10,07,24.80
2012,08,17,10,08,24.90
2012,08,17,10,09,25.00
2012,08,17,10,10,25.10
2012,08,17,10,11,25.10
2012,08,17,10,12,25.00
2012,08,17,10,13,24.90
2012,08,17,10,14,24.70
2012,08,17,10,15,24.60
2012,08,17,10,16,24.40
2012,08,17,10,17,24.30
2012,08,17,10,18,24.10
2012,08,17,10,19,24.10
2012,08,17,10,20,24.10
2012,08,17,10,21,24.20
2012,08,17,10,22,24.30
2012,08,17,10,23,24.40
2012,08,17,10,24,24.50
2012,08,17,10,25,24.60
2012,08,17,10,26,24.60
2012,08,17,10,27,24.80
2012,08,17,10,28,24.90
2012,08,17,10,29,25.00
2012,08,17,10,30,25.20
2012,08,17,10,31,25.20
2012,08,17,10,32,25.20
2012,08,17,10,33,25.20
2012,08,17,10,34,25.20
2012,08,17,10,35,25.10
2012,08,17,10,36,25.00
2012,08,17,10,37,24.80
2012,08,17,10,38,24.60
2012,08,17,10,39,24.50
2012,08,17,10,40,24.40
2012,08,17,10,41,24.30
2012,08,17,10,42,24.10
2012,08,17,10,43,24.10
2012,08,17,10,44,24.10
2012,08,17,10,45,24.10
2012,08,17,10,46,24.10
2012,08,17,10,47,24.10
2012,08,17,10,48,24.10
2012,08,17,10,49,24.10
2012,08,17,10,50,24.10
2012,08,17,10,51,24.10
2012,08,17,10,52,24.10
2012,08,17,10,53,24.10
2012,08,17,10,54,24.10
2012,08,17,10,55,24.20
2012,08,17,10,56,24.30
2012,08,17,10,57,24.40
2012,08,17,10,58,24.40
2012,08,17,10,59,24.40
2012,08,17,11,00,24.40
2012,08,17,11,01,24.40
2012,08,17,11,02,24.40
2012,08,17,11,03,24.30
2012,08,17,11,04,24.30
2012,08,17,11,05,24.30
2012,08,17,11,06,24.30
2012,08,17,11,07,24.30
2012,08,17,11,08,24.30
2012,08,17,11,09,24.30
2012,08,17,11,10,24.20
2012,08,17,11,11,24.20
2012,08,17,11,12,24.20
2012,08,17,11,13,24.20
2012,08,17,11,14,24.10
2012,08,17,11,15,24.10
2012,08,17,11,16,24.10
2012,08,17,11,17,24.10
2012,08,17,11,18,24.20
2012,08,17,11,19,24.20
2012,08,17,11,20,24.30
2012,08,17,11,21,24.30
2012,08,17,11,22,24.40
2012,08,17,11,23,24.40
2012,08,17,11,24,24.50
2012,08,17,11,25,24.50
2012,08,17,11,26,24.60
2012,08,17,11,27,24.60
2012,08,17,11,28,24.60
2012,08,17,11,29,24.60
2012,08,17,11,30,24.60
2012,08,17,11,31,24.60
2012,08,17,11,32,24.50
2012,08,17,11,33,24.60
2012,08,17,11,34,24.70
2012,08,17,11,35,24.90
2012,08,17,11,36,25.00
2012,08,17,11,37,25.00
2012,08,17,11,38,25.00
2012,08,17,11,39,25.00
2012,08,17,11,40,25.00
2012,08,17,11,41,25.10
2012,08,17,11,42,25.10
2012,08,17,11,43,25.10
2012,08,17,11,44,25.10
2012,08,17,11,45,25.10
2012,08,17,11,46,25.20
2012,08,17,11,47,25.20
2012,08,17,11,48,25.20
2012,08,17,11,49,25.20
2012,08,17,11,50,25.20
2012,08,17,11,51,25.20
2012,08,17,11,52,25.20
2012,08,17,11,53,25.10
2012,08,17,11,54,25.10
2012,08,17,11,55,25.20
2012,08,17,11,56,25.30
2012,08,17,11,57,25.40
2012,08,17,11,58,25.60
2012,08,17,11,59,25.60
2012,08,17,12,00,25.70
2012,08,17,12,01,25.70
2012,08,17,12,02,25.70
2012,08,17,12,03,25.80
2012,08,17,12,04,25.80
2012,08,17,12,05,25.70
2012,08,17,12,06,25.70
2012,08,17,12,07,25.60
2012,08,17,12,08,25.60
2012,08,17,12,09,25.60
2012,08,17,12,10,25.60
2012,08,17,12,11,25.60
2012,08,17,12,12,25.60
2012,08,17,12,13,25.60
2012,08,17,12,14,25.60
2012,08,17,12,15,25.50
2012,08,17,12,16,25.40
2012,08,17,12,17,25.20
2012,08,17,12,18,25.10
2012,08,17,12,19,25.10
2012,08,17,12,20,25.10
2012,08,17,12,21,25.20
2012,08,17,12,22,25.30
2012,08,17,12,23,25.40
2012,08,17,12,24,25.50
2012,08,17,12,25,25.60
2012,08,17,12,26,25.80
2012,08,17,12,27,25.80
2012,08,17,12,28,25.90
2012,08,17,12,29,26.00
2012,08,17,12,30,26.00
2012,08,17,12,31,26.00
2012,08,17,12,32,26.00
2012,08,17,12,33,26.00
2012,08,17,12,34,26.10
2012,08,17,12,35,26.00
2012,08,17,12,36,26.00
2012,08,17,12,37,25.90
2012,08,17,12,38,25.80
2012,08,17,12,39,25.80
2012,08,17,12,40,25.80
2012,08,17,12,41,25.70
2012,08,17,12,42,25.60
2012,08,17,12,43,25.50
2012,08,17,12,44,25.40
2012,08,17,12,45,25.40
2012,08,17,12,46,25.50
2012,08,17,12,47,25.60
2012,08,17,12,48,25.60
2012,08,17,12,49,25.50
2012,08,17,12,50,25.40
2012,08,17,12,51,25.20
2012,08,17,12,52,25.10
2012,08,17,12,53,25.00
2012,08,17,12,54,24.90
2012,08,17,12,55,24.70
2012,08,17,12,56,24.50
2012,08,17,12,57,24.40
2012,08,17,12,58,24.20
2012,08,17,12,59,24.20
2012,08,17,13,00,24.10
2012,08,17,13,01,24.00
2012,08,17,13,02,23.80
2012,08,17,13,03,23.70
2012,08,17,13,04,23.70
2012,08,17,13,05,23.60
2012,08,17,13,06,23.50
2012,08,17,13,07,23.40
2012,08,17,13,08,23.30
2012,08,17,13,09,23.30
2012,08,17,13,10,23.40
2012,08,17,13,11,23.50
2012,08,17,13,12,23.60
2012,08,17,13,13,23.70
2012,08,17,13,14,23.90
2012,08,17,13,15,24.00
2012,08,17,13,16,24.10
2012,08,17,13,17,24.20
2012,08,17,13,18,24.40
2012,08,17,13,19,24.60
2012,08,17,13,20,24.70
2012,08,17,13,21,24.60
2012,08,17,13,22,24.50
2012,08,17,13,23,24.30
2012,08,17,13,24,24.10
2012,08,17,13,25,23.80
2012,08,17,13,26,23.70
2012,08,17,13,27,23.60
2012,08,17,13,28,23.60
2012,08,17,13,29,23.60
2012,08,17,13,30,23.70
2012,08,17,13,31,23.70
2012,08,17,13,32,23.80
2012,08,17,13,33,23.80
2012,08,17,13,34,23.70
2012,08,17,13,35,23.70
2012,08,17,13,36,23.60
2012,08,17,13,37,23.50
2012,08,17,13,38,23.40
2012,08,17,13,39,23.40
2012,08,17,13,40,23.30
2012,08,17,13,41,23.40
2012,08,17,13,42,23.40
2012,08,17,13,43,23.50
2012,08,17,13,44,23.60
2012,08,17,13,45,23.60
2012,08,17,13,46,23.60
2012,08,17,13,47,23.70
2012,08,17,13,48,23.70
2012,08,17,13,49,23.60
2012,08,17,13,50,23.60
2012,08,17,13,51,23.50
2012,08,17,13,52,23.40
2012,08,17,13,53,23.30
2012,08,17,13,54,23.30
2012,08,17,13,55,23.30
2012,08,17,13,56,23.30
2012,08,17,13,57,23.30
2012,08,17,13,58,23.30
2012,08,17,13,59,23.30
2012,08,17,14,00,23.30
2012,08,17,14,01,23.30
2012,08,17,14,02,23.40
2012,08,17,14,03,23.50
2012,08,17,14,04,23.60
2012,08,17,14,05,23.60
2012,08,17,14,06,23.60
2012,08,17,14,07,23.40
2012,08,17,14,08,23.30
2012,08,17,14,09,23.30
2012,08,17,14,10,23.30
2012,08,17,14,11,23.20
2012,08,17,14,12,23.20
2012,08,17,14,13,23.30
2012,08,17,14,14,23.30
2012,08,17,14,15,23.30
2012,08,17,14,16,23.30
2012,08,17,14,17,23.40
2012,08,17,14,18,23.40
2012,08,17,14,19,23.50
2012,08,17,14,20,23.60
2012,08,17,14,21,23.70
2012,08,17,14,22,23.70
2012,08,17,14,23,23.70
2012,08,17,14,24,23.60
2012,08,17,14,25,23.50
2012,08,17,14,26,23.30
2012,08,17,14,27,23.30
2012,08,17,14,28,23.30
2012,08,17,14,29,23.30
2012,08,17,14,30,23.30
2012,08,17,14,31,23.30
2012,08,17,14,32,23.30
2012,08,17,14,33,23.40
2012,08,17,14,34,23.50
2012,08,17,14,35,23.60
2012,08,17,14,36,23.70
2012,08,17,14,37,23.80
2012,08,17,14,38,24.00
2012,08,17,14,39,24.10
2012,08,17,14,40,24.10
2012,08,17,14,41,24.00
2012,08,17,14,42,23.80
2012,08,17,14,43,23.70
2012,08,17,14,44,23.70
2012,08,17,14,45,23.50
2012,08,17,14,46,23.40
2012,08,17,14,47,23.40
2012,08,17,14,48,23.30
2012,08,17,14,49,23.40
2012,08,17,14,50,23.50
2012,08,17,14,51,23.60
2012,08,17,14,52,23.70
2012,08,17,14,53,23.80
2012,08,17,14,54,23.90
2012,08,17,14,55,23.90
2012,08,17,14,56,23.90
2012,08,17,14,57,23.90
2012,08,17,14,58,23.90
2012,08,17,14,59,23.90
2012,08,17,15,00,23.90
2012,08,17,15,01,23.90
2012,08,17,15,02,23.90
2012,08,17,15,03,23.90
2012,08,17,15,04,23.90
2012,08,17,15,05,23.90
2012,08,17,15,06,23.90
2012,08,17,15,07,23.90
2012,08,17,15,08,23.90
2012,08,17,15,09,23.90
2012,08,17,15,10,23.90
2012,08,17,15,11,23.90
2012,08,17,15,12,23.90
2012,08,17,15,13,24.00
2012,08,17,15,14,24.10
2012,08,17,15,15,24.10
2012,08,17,15,16,24.20
2012,08,17,15,17,24.30
2012,08,17,15,18,24.40
2012,08,17,15,19,24.50
2012,08,17,15,20,24.60
2012,08,17,15,21,24.70
2012,08,17,15,22,24.70
2012,08,17,15,23,24.70
2012,08,17,15,24,24.70
2012,08,17,15,25,24.70
2012,08,17,15,26,24.70
2012,08,17,15,27,24.70
2012,08,17,15,28,24.70
2012,08,17,15,29,24.70
2012,08,17,15,30,24.70
2012,08,17,15,31,24.70
2012,08,17,15,32,24.70
2012,08,17,15,33,24.70
2012,08,17,15,34,24.60
2012,08,17,15,35,24.50
2012,08,17,15,36,24.40
2012,08,17,15,37,24.40
2012,08,17,15,38,24.30
2012,08,17,15,39,24.30
2012,08,17,15,40,24.30
2012,08,17,15,41,24.20
2012,08,17,15,42,24.20
2012,08,17,15,43,24.10
2012,08,17,15,44,24.10
2012,08,17,15,45,23.90
2012,08,17,15,46,23.80
2012,08,17,15,47,23.80
2012,08,17,15,48,23.80
2012,08,17,15,49,23.80
2012,08,17,15,50,23.80
2012,08,17,15,51,23.90
2012,08,17,15,52,24.00
2012,08,17,15,53,24.10
2012,08,17,15,54,24.20
2012,08,17,15,55,24.30
2012,08,17,15,56,24.40
2012,08,17,15,57,24.50
2012,08,17,15,58,24.60
2012,08,17,15,59,24.70
2012,08,17,16,00,24.70
2012,08,17,16,01,24.80
2012,08,17,16,02,24.80
2012,08,17,16,03,24.90
2012,08,17,16,04,24.90
2012,08,17,16,05,24.90
2012,08,17,16,06,24.80
2012,08,17,16,07,24.80
2012,08,17,16,08,24.60
2012,08,17,16,09,24.40
2012,08,17,16,10,24.10
2012,08,17,16,11,23.90
2012,08,17,16,12,23.70
2012,08,17,16,13,23.60
2012,08,17,16,14,23.40
2012,08,17,16,15,23.20
2012,08,17,16,16,23.10
2012,08,17,16,17,22.90
2012,08,17,16,18,22.90
2012,08,17,16,19,22.80
2012,08,17,16,20,22.80
2012,08,17,16,21,22.80
2012,08,17,16,22,22.90
2012,08,17,16,23,22.90
2012,08,17,16,24,22.90
2012,08,17,16,25,22.90
2012,08,17,16,26,22.80
2012,08,17,16,27,22.70
2012,08,17,16,28,22.60
2012,08,17,16,29,22.60
2012,08,17,16,30,22.50
2012,08,17,16,31,22.50
2012,08,17,16,32,22.40
2012,08,17,16,33,22.40
2012,08,17,16,34,22.40
2012,08,17,16,35,22.50
2012,08,17,16,36,22.50
2012,08,17,16,37,22.60
2012,08,17,16,38,22.70
2012,08,17,16,39,22.70
2012,08,17,16,40,22.80
2012,08,17,16,41,22.90
2012,08,17,16,42,22.90
2012,08,17,16,43,23.00
2012,08,17,16,44,23.00
2012,08,17,16,45,22.90
2012,08,17,16,46,22.90
2012,08,17,16,47,22.80
2012,08,17,16,48,22.80
2012,08,17,16,49,22.80
2012,08,17,16,50,22.70
2012,08,17,16,51,22.70
2012,08,17,16,52,22.70
2012,08,17,16,53,22.80
2012,08,17,16,54,22.80
2012,08,17,16,55,22.80
2012,08,17,16,56,22.70
2012,08,17,16,57,22.70
2012,08,17,16,58,22.60
2012,08,17,16,59,22.50
2012,08,17,17,00,22.50
2012,08,17,17,01,22.40
2012,08,17,17,02,22.30
2012,08,17,17,03,22.20
2012,08,17,17,04,22.20
2012,08,17,17,05,22.20
2012,08,17,17,06,22.20
2012,08,17,17,07,22.20
2012,08,17,17,08,22.20
2012,08,17,17,09,22.30
2012,08,17,17,10,22.40
2012,08,17,17,11,22.50
2012,08,17,17,12,22.60
2012,08,17,17,13,22.60
2012,08,17,17,14,22.60
2012,08,17,17,15,22.60
2012,08,17,17,16,22.60
2012,08,17,17,17,22.70
2012,08,17,17,18,22.70
2012,08,17,17,19,22.70